HST
1 20580U 90037B   25022.15491179  .00012566  00000-0  51700-3 0  9998
2 20580  28.4690 312.9466 0002431 279.4179  80.6140 15.22570831710388
ISS (ZARYA)
1 25544U 98067A   25023.26750491  .00026383  00000-0  46157-3 0  9994
2 25544  51.6402 304.8727 0002398 120.2571  16.0740 15.50434803492681
CXO
1 25867U 99040B   25023.99516665  .00000689  00000-0  00000-0 0  9992
2 25867  46.2215 137.3609 8627046 306.4572   0.5200  0.37805238 15402